Location: The Saddle
(36.8333°N, 80.3417°W)
Time: 20:53:32
(UTC-04:00)

ZACube-1 - Pass Details

Date: 28 March 2023
Orbit: 576 x 651 km, 97.7° (Epoch: 04 June)

Event Time Altitude Azimuth Distance (km) Brightness Sun altitude
Rises 05:07:46 0° 4° (N) 2,869 ? -25.1°
Reaches altitude 10° 05:10:02 10° 359° (N) 1,948 ? -24.7°
Enters shadow 05:12:28 30° 338° (NNW) 1,078 ? -24.2°
